{"data":{"norad_id":60414,"epoch":"2026-09-21T17:14:57.090048Z","epoch_age_seconds":80261,"freshness":"FRESH","line1":"1 60414U 24141S   26264.71871632  .00000006  00000+0  11959-4 0  9996","line2":"2 60414  53.1618  50.6303 0001412  60.3487 299.7655 15.31695207119614","mean_motion":15.31695207,"eccentricity":0.0001412,"inclination_deg":53.1618,"raan_deg":50.6303,"arg_perigee_deg":60.3487,"mean_anomaly_deg":299.7655,"bstar":1.1959e-5,"rev_number":11961,"period_min":94.013482148345,"perigee_km":469.78721949735,"apogee_km":471.72134639565,"semimajor_km":6848.8912829465,"source":"CELESTRAK","updated_at":"2026-09-22T09:00:49.232093Z"}}